This is the latest recevied weather packets stored in our database for station/object SP4MGL-10. If no packets are shown the sender has not sent any weather packets the latest 10 day(s).
| Time | Temp. | Humidity | Pressure | Rain* | Wind** | Luminosity | Snow |
|---|---|---|---|---|---|---|---|
| 1788284343 | 14.44° C | 100% | 1017.1 hPa | - | - | - | - |
| 1788283443 | 14.44° C | 100% | 1017 hPa | - | - | - | - |
| 1788282543 | 15° C | 100% | 1017.1 hPa | - | - | - | - |
| 1788281643 | 17.22° C | 82% | 1017.1 hPa | - | - | - | - |
| 1788280743 | 17.78° C | 75% | 1016.6 hPa | - | - | - | - |
| 1788279843 | 18.33° C | 71% | 1016.7 hPa | - | - | - | - |
| 1788278943 | 19.44° C | 66% | 1016.6 hPa | - | - | - | - |
| 1788278043 | 20° C | 63% | 1016.4 hPa | - | - | - | - |
| 1788277143 | 18.89° C | 67% | 1016.4 hPa | - | - | - | - |
| 1788276242 | 18.33° C | 67% | 1016.3 hPa | - | - | - | - |
| 1788275342 | 19.44° C | 64% | 1016.1 hPa | - | - | - | - |
| 1788274442 | 21.11° C | 56% | 1016.1 hPa | - | - | - | - |
| 1788273542 | 23.89° C | 50% | 1016.1 hPa | - | - | - | - |
| 1788272642 | 25° C | 46% | 1016.2 hPa | - | - | - | - |
| 1788271742 | 22.78° C | 51% | 1016.2 hPa | - | - | - | - |
| 1788270842 | 23.33° C | 49% | 1016.1 hPa | - | - | - | - |
| 1788269942 | 23.33° C | 53% | 1015.9 hPa | - | - | - | - |
| 1788269042 | 19.44° C | 62% | 1016 hPa | - | - | - | - |
| 1788268160 | 23.33° C | 51% | 1016 hPa | - | - | - | - |
| 1788267241 | 19.44° C | 65% | 1016.1 hPa | - | - | - | - |
| 1788266341 | 17.78° C | 70% | 1015.9 hPa | - | - | - | - |
| 1788265441 | 21.11° C | 61% | 1015.8 hPa | - | - | - | - |
| 1788264541 | 22.22° C | 57% | 1015.8 hPa | - | - | - | - |
| 1788263641 | 18.33° C | 70% | 1015.8 hPa | - | - | - | - |
| 1788262741 | 17.78° C | 76% | 1015.8 hPa | - | - | - | - |
* Rain since midnight (hover to see other rain measurements)
** Current wind speed in m/s (hover to see current wind gust speed)